This is the latest recevied weather packets stored in our database for station/object 9M8ZAL-13. If no packets are shown the sender has not sent any weather packets the latest 10 day(s).
| Time | Temp. | Humidity | Pressure | Rain* | Wind** | Luminosity | Snow |
|---|---|---|---|---|---|---|---|
| 1777462076 | 31.11° C | - | 1006.5 hPa | - | - | 1000 W/m² | - |
| 1777461477 | 31.11° C | - | 1006.7 hPa | - | - | 1000 W/m² | - |
| 1777460877 | 31.67° C | - | 1006.6 hPa | - | - | 1000 W/m² | - |
| 1777460276 | 31.67° C | - | 1006.4 hPa | - | - | 1000 W/m² | - |
| 1777459676 | 31.67° C | - | 1006.7 hPa | - | - | 1000 W/m² | - |
| 1777459076 | 31.11° C | - | 1006.7 hPa | - | - | 1000 W/m² | - |
| 1777458476 | 32.22° C | - | 1006.5 hPa | - | - | 1000 W/m² | - |
| 1777457876 | 32.22° C | - | 1006.2 hPa | - | - | 1000 W/m² | - |
| 1777457276 | 32.22° C | - | 1006 hPa | - | - | 1001 W/m² | - |
| 1777456677 | 32.22° C | - | 1005.8 hPa | - | - | 1001 W/m² | - |
| 1777456076 | 32.22° C | - | 1005.6 hPa | - | - | 1001 W/m² | - |
| 1777455476 | 32.78° C | - | 1005.5 hPa | - | - | 1001 W/m² | - |
| 1777454876 | 32.78° C | - | 1005.6 hPa | - | - | 1001 W/m² | - |
| 1777454276 | 32.78° C | - | 1005.5 hPa | - | - | 1001 W/m² | - |
| 1777453676 | 32.22° C | - | 1005.5 hPa | - | - | 1001 W/m² | - |
| 1777453076 | 32.22° C | - | 1005.3 hPa | - | - | 1001 W/m² | - |
| 1777452476 | 31.67° C | - | 1005.3 hPa | - | - | 1001 W/m² | - |
| 1777451876 | 31.11° C | - | 1005.3 hPa | - | - | 1001 W/m² | - |
| 1777451277 | 31.67° C | - | 1005 hPa | - | - | 1001 W/m² | - |
| 1777450676 | 32.22° C | - | 1005.4 hPa | - | - | 1002 W/m² | - |
| 1777450076 | 32.22° C | - | 1005.4 hPa | - | - | 1003 W/m² | - |
| 1777449476 | 32.78° C | - | 1005 hPa | - | - | 1004 W/m² | - |
| 1777448876 | 32.78° C | - | 1004.8 hPa | - | - | 1005 W/m² | - |
| 1777448276 | 32.22° C | - | 1005.1 hPa | - | - | 1004 W/m² | - |
| 1777447676 | 32.22° C | - | 1005.6 hPa | - | - | 1004 W/m² | - |
* Rain since midnight (hover to see other rain measurements)
** Current wind speed in m/s (hover to see current wind gust speed)